Tracking 21676 objects as of 29-Oct-2020
HD Live streaming from Space Station
objects crossing your sky now

RADUGA 20

Track RADUGA 20 now!
RADUGA 20 is classified as:


NORAD ID: 17611
Int'l Code: 1987-028A
Perigee: 36,928.4 km
Apogee: 37,165.9 km
Inclination: 16.0 °
Period: 1,500.6 minutes
Semi major axis: 43418 km
RCS: 2.0634 m2 (large)
Launch date: March 19, 1987
Source: Commonwealth of Independent States (former USSR) (CIS)
Launch site: TYURATAM MISSILE AND SPACE COMPLEX (TTMTR)
aabbcc
Your satellite tracking list
Your tracking list is empty




NASA's NSSDC Master Catalog

Two Line Element Set (TLE):
1 17611U 87028A   20303.08754328 -.00000080  00000-0  00000+0 0  9994
2 17611  16.0341 344.3666 0027350 117.3568  50.8243  0.95961116118553
Source of the keplerian elements: AFSPC